Karlovy Vary, Czech Republic

1:37 PM CEST on June 27, 2017 (GMT +0200)
Karlovy Vary

Weather History for LKKV - March, 2013

Change the Weather History Date:

Sunday, March 3, 2013

  Actual Average (EDQM) Record (EDQM)
Temperature  
Mean Temperature 28 °F -  
Max Temperature 33 °F 36 °F 50 °F (1998)
Min Temperature 24 °F 27 °F 5 °F (2005)
Degree Days  
Heating Degree Days 36    
Moisture  
Dew Point 25 °F    
Average Humidity 82    
Maximum Humidity 93    
Minimum Humidity 69    
Precipitation  
Precipitation 0.00 in - - ()
Sea Level Pressure  
Sea Level Pressure 30.08 in    
Wind  
Wind Speed 7 mph ()    
Max Wind Speed 12 mph    
Max Gust Speed -    
Visibility 5.4 miles    
Events      
Averages and records for this station are not official NWS values.
T = Trace of Precipitation, MM = Missing Value Source: Averaged Metar Reports

Daily Weather History Graph

Daily Weather History Graph

Search for Another Location

Airport or City:

Trip Planner

Search our weather history database for the weather conditions in past years. The results will help you decide how hot, cold, wet, or windy it might be!

Date:

Astronomy

Mar. 03, 2013 Rise Set
Actual Time 6:47 AM CET 5:53 PM CET
Civil Twilight 6:15 AM CET 6:26 PM CET
Nautical Twilight 5:37 AM CET 7:03 PM CET
Astronomical Twilight 4:59 AM CET 7:41 PM CET
Moon No Moon Rise 9:10 AM CET (3/3)
Length of Visible Light 12h 11m
Length of Day
11h 06m
Waning Gibbous, 66% of the Moon is Illuminated
Mar 3
Waning Gibbous
Mar 4
Last Quarter
Mar 11
New
Mar 19
First Quarter
Mar 27
Full

Hourly Weather History & Observations

Time (CET) Temp. Windchill Dew Point Humidity Pressure Visibility Wind Dir Wind Speed Gust Speed Precip Events Conditions
12:00 AM 28.4 °F 23.3 °F 24.8 °F 86% 30.06 in - West 4.6 mph - N/A   Clear
1:00 AM 28.4 °F 19.7 °F 24.8 °F 86% 30.06 in - West 9.2 mph - N/A   Clear
2:00 AM 28.4 °F 19.7 °F 23.0 °F 80% 30.06 in - West 9.2 mph - N/A   Clear
3:00 AM 26.6 °F 17.5 °F 23.0 °F 86% 30.04 in - WSW 9.2 mph - N/A   Clear
4:00 AM 26.6 °F 16.8 °F 23.0 °F 86% 30.04 in - WSW 10.4 mph - N/A   Clear
5:00 AM 26.6 °F 17.5 °F 23.0 °F 86% 30.04 in - WSW 9.2 mph - N/A   Clear
6:00 AM 24.8 °F 16.1 °F 23.0 °F 93% 30.04 in - West 8.1 mph - N/A   Clear
7:00 AM 24.8 °F 19.1 °F 23.0 °F 93% 30.06 in 4.3 mi WSW 4.6 mph - N/A   Scattered Clouds
7:30 AM 24.8 °F 19.1 °F 23.0 °F 93% 30.06 in 4.3 mi SW 4.6 mph - N/A   Scattered Clouds
8:00 AM 26.6 °F 21.2 °F 23.0 °F 86% 30.06 in 3.7 mi SW 4.6 mph - N/A   Scattered Clouds
8:30 AM 26.6 °F 20.0 °F 24.8 °F 93% 30.06 in 3.1 mi WSW 5.8 mph - N/A   Mostly Cloudy
9:00 AM 26.6 °F 19.1 °F 24.8 °F 93% 30.06 in 3.1 mi WSW 6.9 mph - N/A   Mostly Cloudy
9:30 AM 28.4 °F 22.2 °F 24.8 °F 86% 30.06 in 3.1 mi WSW 5.8 mph - N/A   Mostly Cloudy
10:00 AM 28.4 °F 20.4 °F 24.8 °F 86% 30.09 in 3.7 mi WSW 8.1 mph - N/A   Mostly Cloudy
10:30 AM 30.2 °F 22.6 °F 26.6 °F 86% 30.09 in 5.0 mi West 8.1 mph - N/A   Mostly Cloudy
11:00 AM 30.2 °F 25.4 °F 26.6 °F 86% 30.09 in 5.6 mi West 4.6 mph - N/A   Mostly Cloudy
11:30 AM 30.2 °F 23.4 °F 26.6 °F 86% 30.09 in 5.6 mi WNW 6.9 mph - N/A   Mostly Cloudy
12:00 PM 30.2 °F 21.9 °F 26.6 °F 86% 30.09 in 5.6 mi WNW 9.2 mph - N/A   Mostly Cloudy
12:30 PM 32.0 °F 24.2 °F 26.6 °F 80% 30.09 in 6.2 mi West 9.2 mph - N/A   Mostly Cloudy
1:00 PM 32.0 °F 25.6 °F 26.6 °F 80% 30.09 in 6.2 mi West 6.9 mph - N/A   Mostly Cloudy
1:30 PM 32.0 °F 24.8 °F 26.6 °F 80% 30.09 in 6.2 mi West 8.1 mph - N/A   Mostly Cloudy
2:00 PM 33.8 °F 26.4 °F 26.6 °F 75% 30.09 in 6.2 mi West 9.2 mph - N/A   Mostly Cloudy
2:30 PM 33.8 °F 26.4 °F 24.8 °F 70% 30.09 in 6.2 mi West 9.2 mph - N/A   Mostly Cloudy
3:00 PM 33.8 °F 26.4 °F 24.8 °F 70% 30.09 in 6.2 mi WNW 9.2 mph - N/A   Mostly Cloudy
3:30 PM 33.8 °F 26.4 °F 24.8 °F 70% 30.09 in 6.2 mi West 9.2 mph - N/A   Mostly Cloudy
4:00 PM 33.8 °F 25.3 °F 24.8 °F 70% 30.09 in 6.2 mi West 11.5 mph - N/A   Scattered Clouds
4:30 PM 33.8 °F 26.4 °F 24.8 °F 70% 30.09 in 6.2 mi WNW 9.2 mph - N/A   Scattered Clouds
5:00 PM 32.0 °F 24.2 °F 23.0 °F 69% 30.09 in 6.2 mi WNW 9.2 mph - N/A   Scattered Clouds
5:30 PM 32.0 °F 24.8 °F 24.8 °F 75% 30.09 in 6.2 mi WNW 8.1 mph - N/A   Mostly Cloudy
6:00 PM 32.0 °F 24.2 °F 24.8 °F 75% 30.09 in 6.2 mi WNW 9.2 mph - N/A   Mostly Cloudy
6:30 PM 30.2 °F 22.6 °F 24.8 °F 80% 30.09 in 6.2 mi WNW 8.1 mph - N/A   Mostly Cloudy
7:00 PM 30.2 °F 24.3 °F 24.8 °F 80% 30.09 in 6.2 mi NW 5.8 mph - N/A   Mostly Cloudy
7:30 PM 28.4 °F 21.2 °F 24.8 °F 86% 30.12 in 6.2 mi NW 6.9 mph - N/A   Partly Cloudy
8:00 PM 28.4 °F 21.2 °F 23.0 °F 80% 30.12 in - WNW 6.9 mph - N/A   Clear
9:00 PM 28.4 °F - 23.0 °F 80% 30.12 in - Calm Calm - N/A   Clear
10:00 PM 26.6 °F - 23.0 °F 86% 30.15 in 6.2 mi Variable 2.3 mph - N/A   Partly Cloudy
11:00 PM 24.8 °F - 21.2 °F 86% 30.15 in - Calm Calm - N/A   Clear